This is the latest recevied weather packets stored in our database for station/object N4ZIQ. If no packets are shown the sender has not sent any weather packets the latest 10 day(s).
| Time | Temp. | Humidity | Pressure | Rain* | Wind** | Luminosity | Snow |
|---|---|---|---|---|---|---|---|
| 1778246745 | 25.56° C | 86% | 1016.2 hPa | 0 mm | - | 207 W/m² | - |
| 1778246446 | 25.56° C | 86% | 1016.3 hPa | 0 mm | - | 167 W/m² | - |
| 1778246163 | 25.56° C | 85% | 1016.2 hPa | 0 mm | - | 174 W/m² | - |
| 1778245846 | 25° C | 86% | 1016.2 hPa | 0 mm | - | 246 W/m² | - |
| 1778245547 | 25° C | 86% | 1016.2 hPa | 0 mm | - | 246 W/m² | - |
| 1778245248 | 25° C | 87% | 1016.1 hPa | 0 mm | - | 508 W/m² | - |
| 1778244945 | 24.44° C | 87% | 1016.2 hPa | 0 mm | - | 381 W/m² | - |
| 1778244645 | 24.44° C | 87% | 1016.1 hPa | 0 mm | - | 160 W/m² | - |
| 1778244353 | 25° C | 87% | 1016.1 hPa | 0 mm | - | 441 W/m² | - |
| 1778244046 | 25° C | 88% | 1016 hPa | 0 mm | - | 272 W/m² | - |
| 1778243745 | 24.44° C | 89% | 1015.9 hPa | 0 mm | - | 304 W/m² | - |
| 1778243452 | 23.89° C | 88% | 1016 hPa | 0 mm | - | 264 W/m² | - |
| 1778243145 | 23.89° C | 90% | 1015.9 hPa | 0 mm | - | 178 W/m² | - |
| 1778242844 | 23.33° C | 90% | 1016 hPa | 0 mm | - | 200 W/m² | - |
| 1778242564 | 22.78° C | 91% | 1016 hPa | 0 mm | - | 192 W/m² | - |
| 1778242246 | 22.78° C | 92% | 1015.9 hPa | 0 mm | - | 137 W/m² | - |
| 1778241946 | 22.78° C | 93% | 1015.8 hPa | 0 mm | - | 156 W/m² | - |
| 1778241658 | 22.22° C | 94% | 1015.7 hPa | 0 mm | - | 137 W/m² | - |
| 1778241346 | 21.67° C | 95% | 1015.7 hPa | 0 mm | - | 121 W/m² | - |
| 1778241044 | 21.11° C | 95% | 1015.7 hPa | 0 mm | - | 88 W/m² | - |
| 1778240750 | 20.56° C | 95% | 1015.5 hPa | 0 mm | - | 109 W/m² | - |
| 1778240445 | 20° C | 95% | 1015.4 hPa | 0 mm | - | 98 W/m² | - |
| 1778240145 | 18.89° C | 95% | 1015.5 hPa | 0 mm | - | 90 W/m² | - |
| 1778239857 | 18.89° C | 95% | 1015.5 hPa | 0 mm | - | 79 W/m² | - |
| 1778239545 | 18.33° C | 95% | 1015.3 hPa | 0 mm | - | 69 W/m² | - |
* Rain latest hour (hover to see other rain measurements)
** Current wind speed in m/s (hover to see current wind gust speed)